Scottsboro, AL

2:56 AM CDT on May 28, 2017 (GMT -0500)
Scottsboro

Weather History for K4A6 - December, 2012

Change the Weather History Date:

Friday, December 14, 2012

  Actual Average (KHSV) Record (KHSV)
Temperature  
Mean Temperature 42 °F -  
Max Temperature 57 °F 52 °F 75 °F (1984)
Min Temperature 26 °F 34 °F 8 °F (1917)
Degree Days  
Heating Degree Days 24    
Moisture  
Dew Point 32 °F    
Average Humidity 76    
Maximum Humidity 100    
Minimum Humidity 41    
Precipitation  
Precipitation 0.00 in - - ()
Sea Level Pressure  
Sea Level Pressure 30.29 in    
Wind  
Wind Speed 1 mph (NNE)    
Max Wind Speed 5 mph    
Max Gust Speed -    
Visibility 4 miles    
Events      
Averages and records for this station are not official NWS values.
T = Trace of Precipitation, MM = Missing Value Source: NWS Daily Summary

Daily Weather History Graph

Daily Weather History Graph

Search for Another Location

Airport or City:

Trip Planner

Search our weather history database for the weather conditions in past years. The results will help you decide how hot, cold, wet, or windy it might be!

Date:

Astronomy

Dec. 14, 2012 Rise Set
Actual Time 6:43 AM CST 4:34 PM CST
Civil Twilight 6:15 AM CST 5:02 PM CST
Nautical Twilight 5:43 AM CST 5:34 PM CST
Astronomical Twilight 5:13 AM CST 6:04 PM CST
Moon 7:49 AM CST (12/14) 6:23 PM CST (12/14)
Length of Visible Light 10h 46m
Length of Day
9h 50m
Waxing Crescent, 3% of the Moon is Illuminated
Dec 14
Waxing Crescent
Dec 19
First Quarter
Dec 28
Full
Jan 4
Last Quarter
Jan 11
New

Hourly Weather History & Observations

Time (CST) Temp. Windchill Dew Point Humidity Pressure Visibility Wind Dir Wind Speed Gust Speed Precip Events Conditions
12:15 AM 30.2 °F - 26.6 °F 86% 30.35 in 4.0 mi Calm Calm - N/A   Partly Cloudy
12:35 AM 30.2 °F - 26.6 °F 86% 30.35 in 5.0 mi Calm Calm - N/A   Partly Cloudy
12:55 AM 28.4 °F - 26.6 °F 93% 30.35 in 5.0 mi Calm Calm - N/A   Clear
1:15 AM 28.4 °F - 26.6 °F 93% 30.36 in 5.0 mi Calm Calm - N/A   Clear
1:35 AM 28.4 °F - 26.6 °F 93% 30.36 in 5.0 mi Calm Calm - N/A   Clear
1:55 AM 28.4 °F - 26.6 °F 93% 30.36 in 4.0 mi Calm Calm - N/A   Clear
2:15 AM 28.4 °F 24.6 °F 26.6 °F 93% 30.37 in 4.0 mi East 3.5 mph - N/A   Partly Cloudy
2:35 AM 28.4 °F - 26.6 °F 93% 30.36 in 4.0 mi Calm Calm - N/A   Partly Cloudy
2:55 AM 28.4 °F - 26.6 °F 93% 30.36 in 4.0 mi Calm Calm - N/A   Clear
3:15 AM 28.4 °F - 24.8 °F 86% 30.35 in 4.0 mi Calm Calm - N/A   Clear
3:35 AM 28.4 °F - 26.6 °F 93% 30.36 in 4.0 mi Calm Calm - N/A   Clear
3:55 AM 28.4 °F 24.6 °F 26.6 °F 93% 30.36 in 4.0 mi NE 3.5 mph - N/A   Clear
4:15 AM 28.4 °F - 26.6 °F 93% 30.36 in 4.0 mi Calm Calm - N/A   Clear
4:35 AM 28.4 °F - 24.8 °F 86% 30.37 in 4.0 mi Calm Calm - N/A   Clear
4:55 AM 28.4 °F - 26.6 °F 93% 30.37 in 4.0 mi Calm Calm - N/A   Clear
5:15 AM 26.6 °F - 24.8 °F 93% 30.36 in 3.0 mi Calm Calm - N/A   Clear
5:55 AM 26.6 °F 22.6 °F 24.8 °F 93% 30.35 in 3.0 mi NNE 3.5 mph - N/A   Clear
6:15 AM 26.6 °F - 24.8 °F 93% 30.36 in 3.0 mi Calm Calm - N/A   Clear
6:35 AM 26.6 °F - 26.6 °F 100% 30.36 in 3.0 mi Calm Calm - N/A   Clear
6:55 AM 26.6 °F - 24.8 °F 93% 30.36 in 2.0 mi Calm Calm - N/A   Clear
7:15 AM 28.4 °F - 26.6 °F 93% 30.37 in 2.5 mi Calm Calm - N/A   Clear
7:35 AM 32.0 °F 28.7 °F 26.6 °F 80% 30.38 in 2.5 mi East 3.5 mph - N/A   Clear
7:55 AM 32.0 °F - 26.6 °F 80% 30.39 in 2.5 mi Calm Calm - N/A   Haze
8:15 AM 32.0 °F - 28.4 °F 87% 30.39 in 3.0 mi Calm Calm - N/A   Haze
8:35 AM 35.6 °F 32.8 °F 32.0 °F 87% 30.39 in 2.5 mi ENE 3.5 mph - N/A   Haze
8:55 AM 37.4 °F 33.8 °F 32.0 °F 81% 30.38 in 2.5 mi NE 4.6 mph - N/A   Haze
9:15 AM 41.0 °F 38.0 °F 32.0 °F 70% 30.37 in 3.0 mi NE 4.6 mph - N/A   Haze
9:35 AM 41.0 °F 39.0 °F 33.8 °F 76% 30.37 in 3.0 mi NE 3.5 mph - N/A   Haze
9:55 AM 44.6 °F - 33.8 °F 66% 30.36 in 3.0 mi Calm Calm - N/A   Haze
10:15 AM 46.4 °F 44.3 °F 35.6 °F 66% 30.35 in 3.0 mi NE 4.6 mph - N/A   Haze
10:55 AM 48.2 °F - 35.6 °F 62% 30.33 in 3.0 mi NNW 3.5 mph - N/A   Haze
11:15 AM 51.8 °F - 35.6 °F 54% 30.32 in 4.0 mi North 3.5 mph - N/A   Haze
11:35 AM 53.6 °F - 37.4 °F 54% 30.30 in 3.0 mi Calm Calm - N/A   Haze
11:55 AM 53.6 °F - 35.6 °F 51% 30.29 in 4.0 mi Calm Calm - N/A   Haze
12:15 PM 55.4 °F - 35.6 °F 47% 30.28 in 4.0 mi Calm Calm - N/A   Haze
12:35 PM 55.4 °F - 35.6 °F 47% 30.27 in 4.0 mi Calm Calm - N/A   Haze
12:55 PM 55.4 °F - 35.6 °F 47% 30.26 in 4.0 mi SW 3.5 mph - N/A   Haze
2:15 PM 57.2 °F - 33.8 °F 41% 30.23 in 4.0 mi WNW 3.5 mph - N/A   Haze
2:35 PM 57.2 °F - 33.8 °F 41% 30.23 in 4.0 mi Calm Calm - N/A   Haze
2:55 PM 57.2 °F - 33.8 °F 41% 30.22 in 5.0 mi Calm Calm - N/A   Haze
3:15 PM 57.2 °F - 33.8 °F 41% 30.21 in 5.0 mi Calm Calm - N/A   Haze
3:35 PM 57.2 °F - 35.6 °F 44% 30.22 in 4.0 mi Calm Calm - N/A   Haze
3:55 PM 57.2 °F - 35.6 °F 44% 30.22 in 5.0 mi Calm Calm - N/A   Haze
4:15 PM 53.6 °F - 37.4 °F 54% 30.22 in 5.0 mi Calm Calm - N/A   Haze
4:55 PM 50.0 °F - 37.4 °F 62% 30.22 in 5.0 mi Calm Calm - N/A   Haze
5:15 PM 48.2 °F - 37.4 °F 66% 30.23 in 5.0 mi Calm Calm - N/A   Haze
5:35 PM 48.2 °F - 39.2 °F 71% 30.22 in 5.0 mi Calm Calm - N/A   Haze
5:55 PM 46.4 °F - 39.2 °F 76% 30.23 in 6.0 mi Calm Calm - N/A   Haze
6:15 PM 46.4 °F - 37.4 °F 71% 30.22 in 5.0 mi Calm Calm - N/A   Haze
6:35 PM 46.4 °F - 37.4 °F 71% 30.22 in 7.0 mi Calm Calm - N/A   Clear
6:55 PM 44.6 °F - 39.2 °F 81% 30.22 in 5.0 mi Calm Calm - N/A   Haze
7:15 PM 44.6 °F - 37.4 °F 76% 30.22 in 5.0 mi Calm Calm - N/A   Haze
7:35 PM 44.6 °F - 37.4 °F 76% 30.21 in 5.0 mi Calm Calm - N/A   Haze
7:55 PM 42.8 °F - 37.4 °F 81% 30.20 in 5.0 mi Calm Calm - N/A   Haze
8:15 PM 44.6 °F - 37.4 °F 76% 30.20 in 5.0 mi Calm Calm - N/A   Haze
8:35 PM 41.0 °F - 37.4 °F 87% 30.20 in 5.0 mi Calm Calm - N/A   Haze
8:55 PM 41.0 °F - 37.4 °F 87% 30.21 in 5.0 mi Calm Calm - N/A   Haze
9:15 PM 41.0 °F - 37.4 °F 87% 30.20 in 4.0 mi Calm Calm - N/A   Haze
10:15 PM 41.0 °F - 37.4 °F 87% 30.20 in 5.0 mi Calm Calm - N/A   Clear
10:35 PM 41.0 °F - 37.4 °F 87% 30.19 in 5.0 mi Calm Calm - N/A   Haze
10:55 PM 41.0 °F - 37.4 °F 87% 30.18 in 5.0 mi Calm Calm - N/A   Haze
11:15 PM 42.8 °F 41.1 °F 37.4 °F 81% 30.18 in 5.0 mi SW 3.5 mph - N/A   Haze
11:35 PM 41.0 °F - 37.4 °F 87% 30.18 in 5.0 mi Calm Calm - N/A   Clear